FW6905 Weather Reports


Display with metric or nautical units.
time (UTC)temp
F
wind
direction
speed
MPH
gust
MPH
rain 1hr
in
rain 24hr
in
rain mn
in
humidity
%
barometer
mb
20260508151505 74 263 4.0 6.0 0.00 0.00 0.00 39 1015.7
20260508151006 74 254 4.0 8.0 0.00 0.00 0.00 38 1014.7
20260508150505 74 253 4.0 9.0 0.00 0.00 0.00 38 1014.7
20260508150006 75 262 4.0 9.0 0.00 0.00 0.00 38 1014.7
20260508145006 75 240 3.0 6.0 0.00 0.00 0.00 38 1015.7
20260508144505 75 248 4.0 8.0 0.00 0.00 0.00 38 1015.7
20260508144005 75 265 4.0 8.0 0.00 0.00 0.00 38 1015.7
20260508143505 75 264 5.0 9.0 0.00 0.00 0.00 39 1015.7
20260508143005 75 263 4.0 10.0 0.00 0.00 0.00 39 1015.7
20260508142505 75 275 4.0 10.0 0.00 0.00 0.00 39 1015.7
20260508142005 75 279 6.0 9.0 0.00 0.00 0.00 38 1015.7
20260508141506 75 270 4.0 7.0 0.00 0.00 0.00 38 1015.7
20260508140505 75 270 4.0 6.0 0.00 0.00 0.00 38 1015.7
20260508140005 75 34 1.0 4.0 0.00 0.00 0.00 38 1015.7
20260508135005 75 263 0.0 4.0 0.00 0.00 0.00 38 1015.7
20260508134505 75 226 2.0 6.0 0.00 0.00 0.00 38 1015.7
20260508133505 75 216 0.0 4.0 0.00 0.00 0.00 39 1015.7
20260508133006 75 255 3.0 4.0 0.00 0.00 0.00 39 1015.7
20260508132505 75 270 2.0 4.0 0.00 0.00 0.00 40 1016.7
20260508132006 75 281 2.0 4.0 0.00 0.00 0.00 41 1016.7
20260508131505 75 39 2.0 4.0 0.00 0.00 0.00 42 1016.7
20260508131005 75 316 1.0 3.0 0.00 0.00 0.00 41 1016.7
20260508130505 74 289 1.0 3.0 0.00 0.00 0.00 41 1016.7
20260508130006 74 22 1.0 3.0 0.00 0.00 0.00 41 1016.7
20260508125505 74 262 0.0 5.0 0.00 0.00 0.00 41 1016.7
20260508125005 74 270 1.0 5.0 0.00 0.00 0.00 40 1016.7
20260508124005 74 291 0.0 7.0 0.00 0.00 0.00 43 1016.7
20260508123506 74 276 3.0 7.0 0.00 0.00 0.00 43 1016.7
20260508123005 74 274 2.0 9.0 0.00 0.00 0.00 43 1016.7
20260508122005 74 245 3.0 5.0 0.00 0.00 0.00 44 1016.7
20260508121005 74 239 0.0 7.0 0.00 0.00 0.00 43 1016.7
20260508120506 73 193 2.0 7.0 0.00 0.00 0.00 44 1016.7
20260508115006 74 223 3.0 8.0 0.00 0.00 0.00 44 1016.7
20260508113505 73 195 5.0 11.0 0.00 0.00 0.00 45 1017.7
20260508112005 74 225 3.0 5.0 0.00 0.00 0.00 43 1016.7
20260508111506 74 245 2.0 6.0 0.00 0.00 0.00 44 1016.7
20260508111005 74 231 3.0 8.0 0.00 0.00 0.00 43 1017.7
20260508110505 74 212 5.0 8.0 0.00 0.00 0.00 43 1017.7
20260508110006 74 214 4.0 7.0 0.00 0.00 0.00 43 1017.7
20260508105005 74 200 5.0 8.0 0.00 0.00 0.00 44 1017.7
20260508104505 74 194 4.0 8.0 0.00 0.00 0.00 45 1017.7
20260508104005 74 198 3.0 11.0 0.00 0.00 0.00 46 1017.7
20260508103505 74 184 4.0 11.0 0.00 0.00 0.00 44 1017.7
20260508103005 74 187 7.0 10.0 0.00 0.00 0.00 45 1017.7
20260508101505 73 209 3.0 9.0 0.00 0.00 0.00 44 1017.7
20260508101005 73 152 1.0 6.0 0.00 0.00 0.00 46 1017.7
20260508100505 73 139 2.0 6.0 0.00 0.00 0.00 45 1017.7
20260508100005 72 126 1.0 5.0 0.00 0.00 0.00 45 1017.7
20260508095005 72 160 5.0 8.0 0.00 0.00 0.00 46 1017.7
20260508094005 72 129 4.0 7.0 0.00 0.00 0.00 45 1017.7
20260508093505 71 90 2.0 8.0 0.00 0.00 0.00 47 1017.7
20260508093005 71 83 2.0 9.0 0.00 0.00 0.00 48 1017.7
20260508092505 71 80 5.0 9.0 0.00 0.00 0.00 47 1017.7
20260508091505 70 311 3.0 5.0 0.00 0.00 0.00 51 1017.7
20260508091006 70 285 2.0 4.0 0.00 0.00 0.00 56 1017.7
20260508090505 69 292 1.0 4.0 0.00 0.00 0.00 57 1017.7
20260508090005 69 277 2.0 4.0 0.00 0.00 0.00 57 1017.7
20260508085506 68 252 2.0 4.0 0.00 0.00 0.00 58 1017.7
20260508085005 68 278 3.0 5.0 0.00 0.00 0.00 59 1017.7
20260508084505 67 90 2.0 6.0 0.00 0.00 0.00 58 1017.7
20260508084006 67 137 3.0 6.0 0.00 0.00 0.00 58 1017.7
20260508083505 66 148 4.0 7.0 0.00 0.00 0.00 59 1017.7
20260508082006 64 118 5.0 6.0 0.00 0.00 0.00 61 1017.7
20260508081005 63 139 2.0 6.0 0.00 0.00 0.00 62 1017.7
20260508080505 63 121 3.0 6.0 0.00 0.00 0.00 63 1017.7
20260508080005 62 134 3.0 4.0 0.00 0.00 0.00 64 1017.7
20260508075505 62 170 1.0 4.0 0.00 0.00 0.00 65 1018.8
20260508075005 61 163 2.0 6.0 0.00 0.00 0.00 65 1018.8
20260508074505 61 128 4.0 6.0 0.00 0.00 0.00 66 1018.8
20260508074005 61 99 2.0 5.0 0.00 0.00 0.00 66 1018.8
20260508073505 60 100 1.0 5.0 0.00 0.00 0.00 67 1018.8
20260508073006 60 110 3.0 6.0 0.00 0.00 0.00 67 1018.8
20260508072505 60 115 4.0 6.0 0.00 0.00 0.00 66 1017.7
20260508071505 59 129 4.0 7.0 0.00 0.00 0.00 68 1017.7
20260508070505 59 114 2.0 8.0 0.00 0.00 0.00 71 1018.8
20260508070005 58 95 3.0 4.0 0.00 0.00 0.00 72 1018.8
20260508065505 57 83 2.0 5.0 0.00 0.00 0.00 72 1018.8
20260508065005 57 91 4.0 5.0 0.00 0.00 0.00 73 1018.8
20260508064005 56 93 2.0 6.0 0.00 0.00 0.00 73 1018.8
20260508063505 55 77 5.0 9.0 0.00 0.00 0.00 73 1018.8
20260508063005 55 69 4.0 9.0 0.00 0.00 0.00 72 1018.8
20260508062505 55 83 4.0 7.0 0.00 0.00 0.00 74 1018.8
20260508062005 55 91 3.0 7.0 0.00 0.00 0.00 75 1018.8
20260508061505 54 101 4.0 7.0 0.00 0.00 0.00 75 1018.8
20260508061005 54 98 3.0 9.0 0.00 0.00 0.00 76 1018.8
20260508060505 54 93 6.0 9.0 0.00 0.00 0.00 76 1018.8
20260508060006 53 103 4.0 7.0 0.00 0.00 0.00 78 1018.8
20260508055005 53 66 6.0 9.0 0.00 0.00 0.00 79 1018.8
20260508054505 52 65 3.0 5.0 0.00 0.00 0.00 80 1018.8
20260508054005 52 69 2.0 7.0 0.00 0.00 0.00 80 1018.8
20260508053505 52 82 3.0 7.0 0.00 0.00 0.00 81 1018.8
20260508053004 52 93 2.0 6.0 0.00 0.00 0.00 81 1018.8
20260508052505 52 101 2.0 7.0 0.00 0.00 0.00 80 1017.7
20260508052005 51 108 3.0 9.0 0.00 0.00 0.00 81 1017.7
20260508051505 51 111 4.0 9.0 0.00 0.00 0.00 81 1017.7
20260508051005 51 102 5.0 9.0 0.00 0.00 0.00 81 1017.7
20260508050505 51 90 4.0 6.0 0.00 0.00 0.00 81 1017.7
20260508050005 51 80 3.0 5.0 0.00 0.00 0.00 81 1017.7
20260508045004 51 77 3.0 8.0 0.00 0.00 0.00 81 1018.8
20260508044006 51 97 6.0 9.0 0.00 0.00 0.00 81 1017.7
20260508043505 51 103 6.0 11.0 0.00 0.00 0.00 81 1017.7
20260508043005 51 98 5.0 11.0 0.00 0.00 0.00 81 1017.7
20260508041005 51 90 5.0 9.0 0.00 0.00 0.00 82 1017.7
20260508040505 51 92 6.0 7.0 0.00 0.00 0.00 82 1017.7
20260508040005 51 100 3.0 5.0 0.00 0.00 0.00 82 1017.7
20260508035505 51 94 4.0 5.0 0.00 0.00 0.00 82 1017.7
20260508035005 51 87 1.0 5.0 0.00 0.00 0.00 82 1017.7
20260508034505 51 105 2.0 6.0 0.00 0.00 0.00 82 1017.7
20260508034005 51 107 4.0 6.0 0.00 0.00 0.00 82 1017.7
20260508033505 51 43 0.0 2.0 0.00 0.00 0.00 82 1017.7
20260508033005 51 95 0.0 5.0 0.00 0.00 0.00 82 1017.7
20260508032505 51 113 0.0 5.0 0.00 0.00 0.00 82 1017.7
20260508032005 52 96 2.0 4.0 0.00 0.00 0.00 82 1017.7
20260508031505 52 45 2.0 4.0 0.00 0.00 0.00 82 1017.7
20260508031005 52 73 2.0 6.0 0.00 0.00 0.00 82 1017.7
20260508030505 52 100 3.0 6.0 0.00 0.00 0.00 82 1017.7
20260508030005 52 93 4.0 6.0 0.00 0.00 0.00 82 1017.7
20260508025505 52 93 3.0 6.0 0.00 0.00 0.00 82 1017.7
20260508025004 52 104 4.0 5.0 0.00 0.00 0.00 84 1017.7
20260508024505 52 107 2.0 5.0 0.00 0.00 0.00 84 1017.7
20260508024005 52 108 2.0 4.0 0.00 0.00 0.00 84 1018.8
20260508023505 52 100 3.0 4.0 0.00 0.00 0.00 84 1018.8
20260508023005 52 99 2.0 6.0 0.00 0.00 0.00 84 1018.8
20260508022505 52 95 4.0 7.0 0.00 0.00 0.00 84 1017.7
20260508022004 52 92 3.0 7.0 0.00 0.00 0.00 85 1017.7
20260508021505 52 98 4.0 5.0 0.00 0.00 0.00 86 1017.7
20260508021005 52 84 4.0 5.0 0.00 0.00 0.00 87 1018.8
20260508020505 52 67 0.0 5.0 0.00 0.00 0.00 88 1018.8
20260508020005 52 74 0.0 5.0 0.00 0.00 0.00 88 1018.8
20260508015505 52 288 0.0 2.0 0.00 0.00 0.00 88 1017.7
20260508014505 52 216 1.0 2.0 0.00 0.00 0.00 88 1017.7
20260508014005 52 0 0.0 0.0 0.00 0.00 0.00 88 1018.8
20260508013505 52 270 0.0 2.0 0.00 0.00 0.00 88 1018.8
20260508013005 52 252 0.0 2.0 0.00 0.00 0.00 88 1018.8
20260508012005 51 301 2.0 2.0 0.00 0.00 0.00 88 1018.8
20260508011504 51 322 0.0 3.0 0.00 0.00 0.00 88 1018.8
20260508011005 51 203 1.0 3.0 0.00 0.00 0.00 88 1018.8
20260508010505 51 198 1.0 2.0 0.00 0.00 0.00 89 1018.8
20260508005505 51 205 0.0 2.0 0.00 0.00 0.00 88 1018.8
20260508004505 51 227 0.0 2.0 0.00 0.00 0.00 88 1018.8
20260508004005 51 197 0.0 2.0 0.00 0.00 0.00 88 1018.8
20260508003505 51 279 2.0 2.0 0.00 0.00 0.00 87 1018.8
20260508003005 51 314 2.0 2.0 0.00 0.00 0.00 87 1018.8
20260508002505 51 335 0.0 2.0 0.00 0.00 0.00 87 1018.8
20260508002005 51 59 2.0 3.0 0.00 0.00 0.00 87 1018.8
20260508001505 50 58 2.0 3.0 0.00 0.00 0.00 87 1018.8
20260508001005 50 6 0.0 2.0 0.00 0.00 0.00 87 1018.8
20260508000505 51 225 0.0 1.0 0.00 0.00 0.00 87 1018.8
20260508000005 51 0 0.0 0.0 0.00 0.00 0.00 87 1018.8
20260507235504 51 0 0.0 0.0 0.00 0.00 0.00 87 1018.8
20260507235005 51 0 0.0 0.0 0.00 0.00 0.00 87 1018.8
20260507234005 51 146 0.0 1.0 0.00 0.00 0.00 87 1019.8
20260507233505 51 112 0.0 1.0 0.00 0.00 0.00 87 1019.8
20260507232505 51 181 0.0 2.0 0.00 0.00 0.00 87 1018.8
20260507232004 51 185 0.0 2.0 0.00 0.00 0.00 87 1018.8
20260507231505 51 289 0.0 2.0 0.00 0.00 0.00 87 1018.8
20260507231004 51 208 0.0 2.0 0.00 0.00 0.00 87 1018.8
20260507230505 51 210 1.0 2.0 0.00 0.00 0.00 87 1018.8
20260507230005 51 256 1.0 2.0 0.00 0.00 0.00 87 1018.8
20260507225505 51 2 0.0 2.0 0.00 0.00 0.00 86 1018.8
20260507225004 51 11 1.0 2.0 0.00 0.00 0.00 86 1018.8
20260507224505 51 45 0.0 2.0 0.00 0.00 0.00 86 1018.8
20260507223505 51 84 2.0 2.0 0.00 0.00 0.00 87 1019.8
20260507223005 51 110 2.0 2.0 0.00 0.00 0.00 87 1019.8
20260507222504 51 124 2.0 2.0 0.00 0.00 0.00 86 1019.8
20260507222005 51 124 0.0 2.0 0.00 0.00 0.00 86 1019.8
20260507221504 51 91 1.0 2.0 0.00 0.00 0.00 87 1019.8
20260507221004 51 98 0.0 2.0 0.00 0.00 0.00 86 1018.8
20260507220505 51 140 1.0 2.0 0.00 0.00 0.00 86 1018.8
20260507220011 51 84 0.0 2.0 0.00 0.00 0.00 85 1018.8
20260507215506 51 73 1.0 2.0 0.00 0.00 0.00 85 1018.8
20260507215006 50 94 1.0 2.0 0.00 0.00 0.00 86 1018.8
20260507214507 50 95 2.0 2.0 0.00 0.00 0.00 85 1018.8
20260507213507 51 115 1.0 2.0 0.00 0.00 0.00 84 1018.8
20260507213006 51 130 0.0 2.0 0.00 0.00 0.00 84 1018.8
20260507212507 51 89 1.0 2.0 0.00 0.00 0.00 84 1018.8
20260507212007 51 46 1.0 2.0 0.00 0.00 0.00 82 1018.8
20260507211506 51 74 0.0 2.0 0.00 0.00 0.00 84 1018.8
20260507211007 51 98 0.0 2.0 0.00 0.00 0.00 82 1018.8
20260507210506 51 112 0.0 2.0 0.00 0.00 0.00 84 1018.8
20260507210006 51 127 1.0 2.0 0.00 0.00 0.00 82 1018.8
20260507205507 51 0 0.0 0.0 0.00 0.00 0.00 82 1017.7
20260507205006 51 154 0.0 2.0 0.00 0.00 0.00 81 1017.7
20260507204506 51 148 0.0 2.0 0.00 0.00 0.00 81 1017.7
20260507204006 52 111 1.0 2.0 0.00 0.00 0.00 82 1017.7
20260507203507 52 0 0.0 0.0 0.00 0.00 0.00 81 1017.7
20260507203006 52 68 0.0 2.0 0.00 0.00 0.00 80 1017.7
20260507202506 52 82 0.0 3.0 0.00 0.00 0.00 81 1016.7
20260507202006 52 82 1.0 3.0 0.00 0.00 0.00 81 1016.7
20260507201507 52 70 1.0 2.0 0.00 0.00 0.00 81 1016.7
20260507201007 52 68 1.0 2.0 0.00 0.00 0.00 78 1016.7
20260507200507 53 68 0.0 2.0 0.00 0.00 0.00 79 1016.7
20260507200007 53 0 0.0 0.0 0.00 0.00 0.00 79 1016.7
20260507195506 53 0 0.0 0.0 0.00 0.00 0.00 78 1017.7
20260507194506 53 225 0.0 1.0 0.00 0.00 0.00 78 1017.7
20260507194006 54 1 0.0 1.0 0.00 0.00 0.00 76 1017.7
20260507193507 54 1 0.0 1.0 0.00 0.00 0.00 75 1017.7
20260507193006 54 0 0.0 0.0 0.00 0.00 0.00 76 1017.7
20260507191506 55 196 0.0 1.0 0.00 0.00 0.00 74 1017.7
20260507191007 56 0 0.0 0.0 0.00 0.00 0.00 74 1016.7
20260507190006 56 314 0.0 1.0 0.00 0.00 0.00 73 1016.7
20260507185006 57 0 0.0 0.0 0.00 0.00 0.00 73 1016.7
20260507183506 58 249 1.0 2.0 0.00 0.04 0.00 70 1015.7
20260507182506 59 314 0.0 1.0 0.00 0.08 0.00 68 1015.7
20260507182007 59 188 0.0 2.0 0.00 0.12 0.00 67 1015.7
20260507181506 60 186 0.0 2.0 0.00 0.29 0.00 67 1015.7
20260507181006 60 179 0.0 2.0 0.00 0.33 0.00 66 1015.7
20260507180507 61 323 0.0 2.0 0.00 0.33 0.00 66 1015.7
20260507180006 61 234 0.0 2.0 0.00 0.33 0.00 66 1015.7
20260507175507 61 225 0.0 2.0 0.00 0.33 0.00 66 1015.7
20260507175007 62 257 1.0 3.0 0.00 0.33 0.00 66 1015.7
20260507174007 62 279 2.0 3.0 0.00 0.33 0.00 63 1015.7
20260507172507 63 9 4.0 6.0 0.00 0.33 0.00 62 1015.7
20260507172007 63 183 0.0 3.0 0.00 0.33 0.00 63 1015.7
20260507170506 63 273 0.0 3.0 0.00 0.33 0.00 61 1015.7
20260507170006 63 247 2.0 4.0 0.00 0.45 0.00 61 1015.7
20260507165506 63 228 1.0 4.0 0.00 0.58 0.00 60 1014.7
20260507165007 64 212 2.0 4.0 0.00 0.58 0.00 60 1014.7
20260507164507 64 201 2.0 3.0 0.00 0.58 0.00 60 1014.7
20260507164007 64 193 1.0 2.0 0.00 0.58 0.00 59 1015.7
20260507163006 65 225 1.0 4.0 0.00 0.58 0.00 57 1015.7
20260507162506 65 245 1.0 4.0 0.00 0.58 0.00 55 1015.7
20260507162006 65 242 2.0 4.0 0.00 0.58 0.00 53 1015.7
20260507161006 66 181 0.0 2.0 0.00 0.58 0.00 49 1015.7
20260507160507 66 211 1.0 2.0 0.00 0.58 0.00 48 1015.7
20260507155507 67 269 2.0 6.0 0.00 0.58 0.00 46 1014.7
20260507154506 67 282 6.0 10.0 0.00 0.58 0.00 46 1014.7
20260507154009 67 275 3.0 9.0 0.00 0.58 0.00 47 1016.7
20260507153006 68 267 6.0 11.0 0.00 0.58 0.00 47 1016.7
20260507152506 68 263 7.0 12.0 0.00 0.58 0.00 47 1015.7